Location: Alexandria
(38.8050°N, 77.0470°W)
Time: 02:26:22
(UTC-05:00)

Vanguard 1 - All Passes

Search period start: 23 November 2017 00:00
Search period end: 03 December 2017 00:00
Orbit: 650 x 3834 km, 34.2° (Epoch: 22 November)

Date Brightness Start Highest point End Pass type
(mag) Time Alt. Az. Time Alt. Az. Time Alt. Az.
23 Nov - 13:03:09 10° SSW 13:08:38 17° SSE 13:12:43 10° ESE daylight
23 Nov - 15:23:03 10° SW 15:29:10 37° SSE 15:33:30 10° E daylight
23 Nov - 17:44:16 10° WSW 17:48:53 49° S 17:53:13 10° ESE visible
23 Nov - 20:04:44 10° WSW 20:08:29 25° SSW 20:13:08 10° SE visible
24 Nov - 13:22:48 10° SSW 13:29:45 23° SSE 13:34:31 10° ESE daylight
24 Nov - 15:43:59 10° WSW 15:50:07 45° S 15:54:30 10° E daylight
24 Nov - 18:05:20 10° W 18:09:47 44° S 18:14:08 10° ESE visible
24 Nov - 20:26:10 10° WSW 20:29:24 18° SSW 20:33:19 10° SSE visible
25 Nov - 11:25:35 10° S 11:29:21 12° SSE 11:32:33 10° SE daylight
25 Nov - 13:43:03 10° SW 13:50:50 30° SSE 13:55:52 10° ESE daylight
25 Nov - 16:05:02 10° WSW 16:11:03 50° S 16:15:26 10° E daylight
25 Nov - 18:26:26 10° W 18:30:40 37° SSW 18:34:56 10° SE visible
25 Nov - 20:48:16 10° SW 20:50:21 13° SSW 20:52:42 10° S visible
26 Nov - 11:43:23 10° S 11:50:36 18° SSE 11:55:51 10° ESE daylight
26 Nov - 14:03:42 10° SW 14:11:53 38° SSE 14:17:00 10° E daylight
26 Nov - 16:26:10 10° WSW 16:31:59 53° S 16:36:20 10° ESE daylight
26 Nov - 18:47:36 10° W 18:51:30 29° SSW 18:55:33 10° SE visible
27 Nov - 12:02:44 10° SSW 12:11:49 24° SSE 12:17:50 10° ESE daylight
27 Nov - 14:24:37 10° WSW 14:32:54 46° S 14:38:00 10° E daylight
27 Nov - 16:47:20 10° W 16:52:54 51° S 16:57:12 10° ESE daylight
27 Nov - 19:08:56 10° WSW 19:12:20 21° SSW 19:15:54 10° SSE visible
28 Nov - 10:06:02 10° SSE 10:10:41 12° SSE 10:14:38 10° SE daylight
28 Nov - 12:22:47 10° SW 12:33:01 31° SSE 12:39:18 10° E daylight
28 Nov - 14:45:43 10° WSW 14:53:54 52° S 14:58:56 10° E daylight
28 Nov - 17:08:30 10° W 17:13:47 45° SSW 17:18:00 10° ESE visible
28 Nov - 19:30:41 10° WSW 19:33:09 14° SSW 19:35:43 10° S visible
29 Nov - 10:23:07 10° S 10:32:01 18° SSE 10:38:32 10° ESE daylight
29 Nov - 12:43:17 10° SW 12:54:09 39° SSE 13:00:31 10° E daylight
29 Nov - 15:06:57 10° WSW 15:14:53 57° S 15:19:49 10° E daylight
29 Nov - 17:29:44 10° W 17:34:37 37° SSW 17:38:41 10° SE visible
30 Nov - 10:42:01 10° SSW 10:53:19 24° SSE 11:00:49 10° ESE daylight
30 Nov - 13:04:09 10° SW 13:15:16 46° SSE 13:21:34 10° E daylight
30 Nov - 15:28:14 10° W 15:35:51 58° S 15:40:41 10° ESE daylight
30 Nov - 17:51:02 10° W 17:55:25 28° SSW 17:59:12 10° SE visible
01 Dec - 08:47:17 10° SSE 08:51:25 11° SE 08:55:08 10° SE daylight
01 Dec - 11:01:45 10° SSW 11:14:35 31° SSE 11:22:28 10° E daylight
01 Dec - 13:25:15 10° WSW 13:36:21 54° S 13:42:31 10° E daylight
01 Dec - 15:49:33 10° W 15:56:47 55° S 16:01:29 10° ESE daylight
01 Dec - 18:12:32 10° WSW 18:16:09 20° SSW 18:19:24 10° SSE visible
02 Dec - 09:02:50 10° S 09:12:48 17° SSE 09:20:26 10° ESE daylight
02 Dec - 11:22:02 10° SW 11:35:49 39° SSE 11:43:48 10° E daylight
02 Dec - 13:46:32 10° WSW 13:57:24 59° S 14:03:25 10° E daylight
02 Dec - 16:10:53 10° W 16:17:40 48° SSW 16:22:14 10° ESE daylight
02 Dec - 18:34:35 10° WSW 18:36:49 13° SSW 18:38:56 10° S visible
